Temp
55 55 55 55 54 53 50 45 35 48 48 34 32 28 36 44 41 43 41 40 38 34 35 32 32 34 36 40 40 35 36 33 26 32 39 41 38 37 36 24 22 21 19 26
54 53 54 53 52 53 46 41 40 47 44 28 28 34 38 40 39 38 38 37 39 38 34 31 33 34 40 42 39 35 36 31 22 27 33 36 32 37 39 35 30 25 17 27
54 53 52 51 51 52 47 40 34 38 40 36 31 32 35 36 41 39 39 36 38 37 32 36 32 33 39 40 40 46 42 32 29 22 28 33 31 35 38 36 23 27 28 33
52 51 50 50 49 50 46 40 34 40 32 35 34 34 35 35 33 38 39 36 36 36 28 30 31 33 35 39 41 37 37 28 28 32 34 35 34 33 36 32 33 28 33 33
51 50 49 49 50 50 42 37 36 38 34 37 36 35 31 33 34 35 34 33 35 34 31 34 32 31 33 35 35 32 36 29 30 26 32 32 30 33 35 36 37 35 36 35
49 48 49 49 50 51 41 42 43 39 36 34 32 33 33 34 37 35 36 36 32 32 34 38 37 35 34 33 30 30 30 29 26 20 27 28 24 30 34 37 40 40 33 39
49 50 50 50 51 52 43 41 40 34 29 33 33 36 36 35 34 32 34 35 32 35 38 36 33 30 31 31 32 34 29 27 26 21 24 13 30 35 37 36 38 39 39 39
50 50 51 52 52 53 42 40 39 34 26 33 33 34 33 34 35 35 35 37 37 38 33 28 26 24 26 28 30 29 32 28 21 18 19 24 31 34 33 31 31 37 36 38
50 51 52 52 52 50 41 38 39 37 30 28 35 33 33 28 27 30 33 37 38 35 29 28 17 18 22 23 23 28 30 31 27 23 18 15 25 33 38 37 25 37 38 37
50 51 51 51 51 50 41 38 40 36 27 32 33 30 29 31 28 26 29 32 31 32 25 23 20 18 24 19 19 20 22 24 23 22 21 23 30 34 37 21 24 36 37 38
50 50 50 51 50 49 41 37 41 38 32 32 35 37 32 31 30 25 28 28 27 25 20 23 22 20 19 17 19 19 20 19 18 22 19 16 33 33 27 30 35 35 37 38
51 50 50 50 50 50 45 36 42 42 35 34 38 39 40 39 37 31 29 28 26 28 19 20 20 21 16 16 13 23 19 22 19 22 23 30 31 30 34 35 36 37 37 38
50 50 50 50 50 49 44 37 38 37 32 32 33 33 37 40 39 39 29 28 30 28 28 22 21 14 20 11 15 16 21 24 22 24 25 29 34 38 39 38 36 39 41 39
50 50 50 49 49 48 45 36 37 35 31 23 28 38 33 37 38 37 36 33 32 30 28 20 16 16 23 13 19 17 23 24 21 21 26 28 30 31 34 37 39 36 39 38
50 49 49 49 48 46 41 38 37 38 32 25 27 32 34 35 35 34 34 32 29 22 16 11 16 23 21 19 19 16 24 24 19 19 29 28 29 34 36 34 35 37 36 36
49 49 49 48 47 44 37 30 35 38 34 22 17 29 27 32 32 30 29 30 27 25 20 17 22 26 22 12 12 25 27 28 30 27 32 32 33 35 36 34 35 37 35 34
48 48 48 47 45 37 32 31 35 40 34 19 14 21 29 31 30 28 27 28 27 25 23 22 22 23 26 12 16 25 29 31 31 32 32 28 31 30 33 33 34 35 34 34
48 48 47 47 46 41 33 36 43 38 28 21 7 14 21 30 20 19 27 22 20 19 21 23 21 23 21 13 22 25 28 29 31 33 33 31 32 31 31 33 33 31 32 34
48 47 46 37 33 30 32 44 41 34 28 13 14 12 10 27 22 22 20 19 10 24 18 21 24 20 14 24 24 26 30 29 29 31 31 30 28 29 30 30 30 29 30 31
46 37 32 25 33 42 42 29 23 22 27 26 15 21 15 23 22 19 18 17 17 10 21 25 20 20 29 30 30 30 29 30 30 24 24 27 26 28 28 29 31 31 31 32
32 24 25 32 39 31 19 8 10 9 9 21 21 20 17 26 15 16 22 10 13 9 16 20 17 20 23 28 26 28 28 29 29 28 28 28 27 26 27 28 31 30 30 31
33 29 32 28 19 9 7 -2 11 12 14 20 16 16 19 19 24 16 18 14 17 5 16 13 13 21 25 24 24 26 27 27 26 27 26 27 27 28 28 28 29 30 31 33
29 18 11 12 6 4 -0 -3 1 4 11 12 12 12 13 16 14 12 17 5 10 23 13 12 14 24 25 24 25 25 27 27 26 26 27 27 28 29 28 28 31 30 30 32
15 6 5 2 -4 0 6 8 10 17 17 16 14 13 14 10 10 9 8 15 16 7 1 10 19 22 23 25 26 25 24 25 24 25 26 27 27 27 29 32 33 32 29 30
11 8 3 6 12 4 5 6 13 18 19 16 13 13 16 9 7 8 12 6 5 8 12 17 22 23 23 24 25 24 24 24 24 25 26 27 27 27 28 30 33 30 30 30
11 8 8 14 9 6 7 6 10 18 18 21 17 5 2 5 6 6 3 6 6 15 16 22 21 22 23 23 24 24 25 24 24 25 27 27 27 27 28 29 29 28 30 31
9 10 21 14 17 14 10 10 10 16 16 13 10 3 6 4 5 4 12 12 15 15 19 21 21 20 21 22 23 24 25 24 25 26 27 26 28 29 27 28 29 30 30 31
MSLP
1014.66 1015.78 1016.59 1017.50 1018.14 1018.69 1019.55 1019.84 1020.30 1019.63 1019.75 1020.71 1020.62 1020.24 1019.13 1018.30 1018.07 1017.69 1017.74 1017.73 1017.81 1017.89 1017.87 1017.82 1017.75 1017.56 1017.38 1017.38 1017.48 1017.72 1018.17 1018.52 1018.50 1017.70 1016.88 1016.56 1016.55 1016.79 1017.28 1018.53 1019.58 1019.83 1019.12 1016.64
1014.94 1015.89 1016.46 1017.07 1017.89 1018.25 1018.85 1019.20 1019.74 1019.57 1019.86 1020.37 1020.37 1019.66 1019.19 1018.41 1018.31 1018.17 1018.12 1018.16 1018.21 1018.32 1018.32 1018.28 1017.83 1017.80 1017.96 1017.71 1017.79 1017.92 1018.24 1018.59 1018.85 1018.15 1017.80 1017.16 1016.84 1016.96 1017.21 1017.60 1018.27 1018.88 1018.60 1016.69
1014.70 1015.76 1016.65 1017.15 1017.70 1018.15 1018.77 1019.16 1019.38 1019.73 1019.73 1019.86 1019.76 1019.49 1019.08 1018.65 1018.28 1018.45 1018.44 1018.57 1018.70 1018.80 1018.96 1018.70 1018.61 1018.50 1018.39 1018.23 1018.31 1018.35 1018.55 1019.01 1019.28 1019.13 1018.58 1018.17 1017.61 1017.17 1017.13 1017.49 1018.01 1017.77 1017.27 1016.41
1014.43 1015.41 1016.40 1017.13 1017.74 1018.15 1018.66 1018.35 1018.48 1018.10 1018.82 1019.42 1019.62 1019.47 1019.06 1018.76 1018.73 1018.65 1018.64 1018.87 1018.87 1019.20 1019.47 1019.38 1019.22 1019.28 1019.14 1019.18 1019.06 1018.99 1019.11 1019.48 1019.54 1019.19 1018.89 1018.54 1018.08 1017.51 1017.21 1017.26 1017.21 1017.07 1016.50 1016.08
1014.01 1015.21 1016.40 1017.04 1017.66 1018.36 1018.63 1017.84 1018.04 1018.32 1018.56 1018.55 1019.05 1019.52 1019.19 1018.88 1018.94 1018.94 1019.09 1019.22 1019.39 1019.41 1019.62 1019.63 1019.85 1020.13 1020.05 1019.99 1020.07 1019.91 1019.94 1020.09 1020.23 1019.99 1019.17 1018.74 1018.07 1017.20 1016.61 1016.39 1016.24 1015.99 1015.85 1015.50
1013.94 1015.31 1016.34 1016.98 1017.37 1017.82 1017.70 1017.40 1017.49 1017.73 1018.32 1018.75 1019.12 1018.96 1018.97 1018.80 1019.01 1019.83 1019.57 1019.54 1020.10 1020.15 1020.16 1020.28 1020.60 1020.79 1020.87 1020.83 1020.88 1020.75 1020.59 1020.76 1020.97 1020.40 1019.51 1019.06 1017.99 1016.35 1015.66 1015.15 1014.92 1014.98 1014.95 1014.91
1014.21 1015.50 1016.45 1016.72 1017.07 1017.41 1017.61 1017.64 1017.78 1018.23 1018.55 1018.63 1018.65 1018.58 1018.72 1018.79 1019.29 1019.75 1020.19 1020.34 1020.46 1020.73 1020.62 1020.83 1021.02 1021.12 1020.97 1020.99 1020.98 1021.05 1021.06 1021.33 1021.29 1020.86 1020.21 1019.10 1016.89 1015.88 1015.38 1015.00 1014.76 1014.70 1014.61 1014.69
1015.04 1015.65 1016.04 1016.28 1016.47 1016.79 1017.80 1017.70 1017.90 1018.39 1018.74 1018.51 1018.68 1018.80 1018.96 1019.27 1019.62 1020.10 1020.27 1020.36 1020.47 1020.70 1020.98 1021.40 1021.38 1021.18 1021.07 1020.41 1020.35 1020.77 1021.04 1021.31 1021.50 1021.23 1020.45 1018.52 1016.94 1015.90 1015.51 1015.07 1015.28 1015.28 1014.84 1014.94
1015.29 1015.67 1015.63 1015.96 1016.23 1016.88 1017.64 1017.95 1018.09 1018.35 1018.77 1018.94 1018.59 1019.03 1019.32 1019.89 1020.30 1020.59 1020.76 1020.71 1020.76 1021.23 1021.86 1022.25 1022.16 1021.81 1021.27 1020.96 1020.74 1020.54 1020.98 1021.16 1021.55 1021.22 1020.47 1018.96 1017.32 1016.54 1015.91 1015.45 1015.96 1015.88 1015.54 1015.56
1015.63 1015.66 1015.93 1016.05 1016.36 1016.68 1017.50 1018.31 1018.08 1018.48 1019.30 1019.20 1018.97 1019.16 1019.66 1020.00 1020.55 1020.95 1021.16 1021.20 1021.31 1021.80 1022.60 1022.80 1022.81 1022.48 1021.81 1021.71 1021.44 1021.45 1021.78 1021.82 1021.29 1021.05 1020.22 1018.85 1017.76 1016.99 1016.28 1016.84 1017.83 1016.89 1016.49 1016.17
1015.63 1015.94 1016.04 1016.32 1016.68 1016.79 1017.34 1018.50 1018.18 1018.37 1019.16 1019.23 1019.21 1019.28 1019.60 1020.32 1020.67 1020.90 1021.48 1021.92 1022.22 1022.77 1023.38 1023.45 1023.11 1023.08 1022.83 1022.71 1022.01 1021.69 1021.63 1021.71 1021.56 1021.31 1020.67 1019.56 1018.23 1017.45 1017.86 1018.65 1017.75 1017.45 1017.15 1016.93
1015.80 1016.13 1016.28 1016.66 1016.97 1017.07 1017.42 1018.48 1018.29 1018.43 1018.84 1019.66 1019.56 1019.55 1019.42 1020.00 1020.19 1020.76 1021.61 1021.90 1022.26 1022.79 1023.80 1024.12 1023.86 1023.76 1023.84 1023.92 1023.16 1022.10 1022.15 1021.55 1021.47 1021.10 1020.12 1019.36 1019.12 1019.03 1018.79 1018.90 1018.44 1017.79 1017.45 1017.21
1015.98 1016.25 1016.72 1017.12 1017.23 1017.36 1017.48 1018.45 1018.68 1018.85 1019.59 1020.17 1020.14 1020.24 1020.20 1020.12 1020.19 1020.59 1021.21 1022.05 1022.38 1023.04 1023.36 1024.23 1024.60 1024.79 1024.31 1024.29 1023.76 1022.96 1022.21 1021.90 1021.69 1021.28 1020.14 1019.45 1019.01 1018.88 1018.80 1018.32 1018.48 1018.19 1017.82 1017.44
1016.21 1016.71 1017.08 1017.58 1017.74 1017.55 1017.76 1018.94 1019.31 1019.27 1020.08 1020.58 1021.11 1020.79 1020.60 1020.45 1020.39 1020.76 1021.19 1021.86 1022.45 1023.10 1023.91 1024.50 1024.85 1025.07 1024.30 1024.18 1023.72 1023.42 1022.78 1022.28 1021.74 1021.00 1020.61 1019.93 1019.31 1018.98 1018.86 1018.66 1018.42 1018.22 1017.99 1017.88
1016.52 1016.96 1017.58 1017.82 1018.16 1018.31 1018.65 1019.24 1019.82 1019.80 1020.38 1021.16 1021.63 1021.37 1021.16 1021.04 1020.89 1021.03 1021.57 1022.15 1022.99 1023.98 1024.74 1025.16 1025.07 1024.52 1024.36 1024.07 1023.80 1023.12 1022.29 1021.88 1021.83 1020.85 1020.50 1020.00 1019.45 1018.82 1018.38 1018.21 1017.99 1017.98 1017.77 1017.49
1016.99 1017.44 1017.74 1018.10 1018.70 1018.93 1019.23 1020.01 1020.34 1020.31 1020.53 1021.46 1022.28 1022.35 1021.97 1021.43 1021.28 1021.60 1022.14 1022.81 1023.46 1024.05 1024.46 1024.51 1024.24 1023.71 1023.80 1023.86 1022.95 1021.55 1021.31 1021.00 1020.79 1020.44 1019.85 1019.51 1018.73 1018.34 1017.83 1017.36 1017.04 1017.05 1016.92 1016.82
1017.37 1017.84 1018.24 1018.59 1019.07 1019.58 1020.03 1020.60 1020.85 1020.43 1020.78 1022.04 1023.46 1023.10 1022.45 1022.12 1022.19 1022.45 1022.85 1023.04 1023.45 1023.87 1024.06 1023.95 1023.85 1023.45 1023.22 1022.95 1021.90 1021.25 1020.83 1020.48 1019.98 1019.68 1019.55 1018.76 1018.35 1017.63 1017.18 1016.91 1016.37 1016.41 1016.25 1016.06
1017.78 1018.26 1018.68 1019.13 1019.53 1019.94 1020.59 1020.93 1020.61 1020.79 1021.69 1022.77 1024.08 1024.35 1023.54 1022.82 1023.04 1023.40 1023.11 1023.51 1023.94 1023.68 1023.53 1023.50 1023.32 1023.11 1022.84 1022.22 1020.81 1020.51 1020.22 1019.82 1019.51 1019.24 1019.01 1018.29 1017.57 1017.27 1016.62 1016.35 1015.83 1015.22 1014.92 1014.71
1018.08 1018.61 1019.22 1019.94 1020.48 1021.17 1021.48 1021.02 1021.15 1021.51 1022.58 1023.92 1024.72 1024.77 1024.32 1023.35 1023.41 1023.67 1023.72 1023.95 1024.38 1023.83 1023.53 1022.95 1022.78 1022.48 1021.94 1020.64 1020.46 1020.28 1019.80 1019.64 1018.95 1018.44 1018.13 1017.50 1016.79 1015.95 1015.46 1015.15 1014.69 1014.23 1013.64 1013.65
1018.68 1019.43 1020.17 1021.35 1021.64 1021.42 1021.48 1022.00 1022.33 1022.78 1023.65 1024.10 1024.92 1024.80 1024.45 1024.08 1024.13 1024.24 1024.60 1024.55 1024.32 1023.88 1022.81 1022.35 1022.11 1021.28 1020.40 1020.34 1020.16 1019.96 1019.64 1019.24 1018.77 1018.06 1017.06 1016.41 1015.68 1015.08 1014.38 1013.85 1013.40 1012.87 1012.50 1012.44
1019.58 1020.67 1021.68 1022.16 1021.81 1022.10 1023.35 1024.40 1024.95 1025.32 1025.47 1025.00 1024.95 1024.99 1024.77 1024.14 1024.63 1024.70 1024.56 1024.71 1024.35 1023.87 1022.78 1022.17 1021.53 1020.87 1021.03 1020.60 1020.27 1019.84 1019.27 1018.72 1018.13 1017.63 1016.70 1015.89 1015.00 1013.95 1013.05 1012.28 1011.71 1011.34 1011.11 1010.95
1019.98 1020.70 1021.96 1022.66 1023.53 1024.77 1025.96 1026.77 1026.87 1026.36 1025.82 1025.39 1025.21 1025.05 1024.85 1024.71 1024.50 1024.92 1024.98 1024.83 1024.41 1023.56 1022.69 1022.25 1021.22 1020.94 1020.67 1020.51 1019.95 1019.16 1018.58 1017.99 1017.38 1016.72 1015.77 1014.72 1013.63 1012.51 1011.44 1010.58 1009.79 1009.40 1009.32 1009.38
1020.75 1021.73 1023.67 1024.83 1026.45 1027.39 1027.60 1027.79 1027.71 1026.88 1025.84 1025.59 1025.56 1025.62 1025.54 1025.21 1025.45 1025.55 1025.57 1025.10 1024.28 1023.03 1022.53 1021.64 1020.89 1020.70 1020.46 1020.03 1019.33 1018.49 1017.92 1017.35 1016.59 1015.60 1014.55 1013.40 1012.08 1011.03 1009.94 1008.54 1007.42 1007.27 1007.78 1008.13
1022.48 1024.26 1025.69 1026.63 1027.34 1027.58 1027.39 1027.24 1026.70 1025.87 1025.59 1025.56 1025.68 1026.16 1026.21 1026.19 1026.25 1026.20 1026.17 1024.71 1023.99 1023.23 1022.26 1021.11 1020.85 1020.44 1020.07 1019.48 1018.84 1018.17 1017.25 1016.57 1015.73 1014.66 1013.52 1012.33 1011.25 1009.97 1008.76 1007.37 1006.69 1006.70 1007.15 1007.49
1023.78 1025.00 1026.31 1026.85 1026.69 1026.94 1027.06 1027.02 1026.51 1025.63 1025.38 1025.63 1026.05 1026.42 1026.79 1026.96 1026.89 1026.51 1025.88 1025.06 1023.93 1022.89 1021.80 1021.35 1020.70 1020.32 1019.76 1019.01 1018.36 1017.78 1016.91 1016.04 1015.09 1014.06 1012.80 1011.77 1010.81 1009.66 1008.49 1007.53 1007.00 1006.89 1006.98 1007.16
1024.04 1025.04 1025.98 1026.35 1026.75 1027.05 1027.08 1026.89 1026.46 1025.52 1025.35 1025.60 1026.12 1027.15 1027.54 1027.62 1027.12 1026.78 1025.68 1024.78 1023.26 1022.34 1021.81 1021.24 1020.79 1020.26 1019.60 1018.86 1018.17 1017.45 1016.58 1015.74 1014.72 1013.66 1012.45 1011.51 1010.54 1009.60 1008.67 1007.85 1007.17 1006.83 1006.79 1007.02
1024.23 1024.85 1024.95 1025.58 1026.06 1026.67 1026.60 1026.48 1026.11 1025.31 1025.53 1026.20 1026.70 1027.41 1027.32 1027.28 1026.89 1026.12 1024.54 1023.46 1022.69 1022.20 1021.62 1021.07 1020.71 1020.14 1019.34 1018.63 1017.82 1016.98 1016.14 1015.27 1014.27 1013.19 1012.28 1011.41 1010.49 1009.58 1008.93 1008.32 1007.89 1007.62 1007.51 1007.69
Wind_Speed
25 24 22 20 17 14 8 2 2 1 3 2 2 3 6 4 2 2 0 2 4 4 2 2 3 5 2 2 1 3 2 2 4 9 4 4 4 6 6 5 4 2 4 7
21 21 21 20 17 13 4 4 3 0 4 4 3 4 2 4 3 2 1 2 1 1 3 3 3 1 0 3 2 4 1 1 2 7 5 2 2 3 3 3 3 6 6 6
24 23 20 17 13 10 3 3 4 2 2 2 4 4 5 5 4 4 3 2 2 2 2 3 2 2 2 1 2 2 2 2 5 5 2 2 4 4 4 3 3 4 5 3
26 24 19 14 10 9 3 3 4 3 5 5 4 1 1 6 5 3 6 4 5 3 3 3 4 1 3 3 5 2 3 3 1 5 5 4 8 8 8 6 5 6 6 7
26 21 18 16 17 14 4 4 4 1 2 4 11 5 4 6 2 6 3 4 2 2 4 1 1 1 1 1 4 1 2 1 2 5 7 8 11 11 12 13 10 7 7 11
24 20 18 17 18 15 3 1 1 3 4 4 5 4 5 6 7 2 1 4 4 3 1 2 3 4 4 3 1 1 2 2 1 4 1 7 8 13 15 12 11 14 16 12
21 17 16 16 18 19 1 2 3 3 2 4 5 4 5 4 3 5 3 4 4 3 1 2 3 4 8 6 9 6 4 4 3 4 2 4 7 5 8 7 7 6 8 5
15 13 14 16 19 20 2 1 3 3 2 3 2 6 4 5 3 3 4 3 3 4 2 1 3 2 2 6 9 8 9 3 1 3 3 7 9 6 3 3 2 4 3 4
16 12 12 12 11 11 4 2 1 3 5 3 2 4 4 4 3 1 2 2 2 4 2 2 3 4 3 2 1 4 8 7 5 3 4 5 3 6 7 4 3 5 5 5
16 15 14 13 12 12 5 2 1 4 4 1 2 3 4 4 3 3 2 3 3 3 2 3 3 4 2 3 3 4 4 3 13 8 5 6 3 8 4 1 2 4 3 2
16 15 14 13 12 8 4 1 2 3 2 1 2 2 4 3 2 4 3 4 2 2 3 3 3 3 2 2 3 2 6 6 5 4 4 8 7 4 2 2 5 3 5 5
17 15 14 13 11 8 4 3 2 2 4 3 2 2 2 2 4 5 1 3 3 4 3 1 1 1 2 1 3 4 3 4 3 5 4 3 3 2 5 3 5 6 3 4
16 15 13 12 12 11 7 3 2 3 3 3 3 4 4 3 2 2 4 1 1 2 3 4 1 1 3 2 5 2 3 1 3 4 4 9 14 14 12 10 3 6 7 4
16 14 14 13 13 14 9 4 3 3 3 4 1 2 2 2 2 2 3 5 4 5 2 2 3 2 4 4 3 4 5 4 3 7 9 12 9 5 4 16 16 8 9 7
17 16 13 14 16 18 10 4 3 3 3 3 2 2 3 3 2 5 4 4 3 2 2 2 3 2 1 2 1 3 6 9 6 11 13 14 15 17 17 15 14 13 13 11
17 15 13 13 13 6 3 4 4 4 2 5 2 3 2 5 5 3 1 2 2 3 4 3 3 3 4 3 4 6 6 7 11 12 13 14 18 17 17 21 20 16 12 10
17 15 14 13 11 5 4 2 2 4 3 4 3 3 4 3 4 2 1 1 2 3 2 3 3 3 4 2 12 4 10 11 11 9 6 16 17 15 11 12 13 11 9 8
17 17 18 19 14 8 5 3 6 4 5 4 4 3 4 2 2 2 0 1 2 2 3 1 2 0 2 4 7 5 6 7 9 13 13 15 19 19 20 17 18 20 18 16
17 18 15 5 5 3 1 3 7 4 4 3 3 4 3 2 1 1 3 2 2 1 2 3 3 3 5 6 4 4 10 13 18 18 19 20 21 21 20 18 18 20 18 15
17 5 4 3 2 2 2 6 4 5 4 3 2 1 2 3 2 3 2 1 2 1 4 3 3 3 7 2 6 10 12 15 17 19 19 18 18 19 20 20 18 18 17 16
4 3 2 1 4 3 4 3 4 3 5 1 2 3 1 1 2 3 1 2 2 1 4 2 3 3 2 6 8 10 13 15 16 17 19 19 21 21 20 20 21 18 18 18
5 6 5 3 5 5 7 1 4 2 3 1 3 4 3 2 1 2 3 2 0 5 1 1 3 3 6 6 11 14 13 13 16 16 19 20 23 21 19 19 19 19 17 16
4 6 6 5 4 8 5 2 5 2 2 2 1 2 1 4 3 0 1 2 5 2 2 4 3 5 7 9 11 14 13 14 16 19 18 21 19 20 19 19 18 17 13 12
5 5 3 4 4 3 5 4 4 4 2 2 2 1 2 1 3 2 1 5 1 3 2 3 0 8 11 11 12 13 17 18 18 19 20 19 18 18 19 12 3 5 8 8
4 5 2 3 4 1 3 2 1 2 2 3 2 3 2 2 2 2 2 5 4 6 2 2 6 10 11 14 15 15 16 16 17 17 17 17 16 16 14 9 5 4 6 7
5 4 3 1 3 4 3 0 3 1 2 2 3 2 4 4 3 1 6 3 5 2 2 6 7 10 12 15 14 15 15 16 17 16 15 16 14 13 12 7 5 2 4 4
4 1 1 3 1 3 3 3 4 1 3 2 3 3 8 1 1 3 4 4 2 2 7 6 7 10 14 14 14 15 16 17 16 15 13 13 12 9 6 6 5 6 9 9
Wind_Direction
183 181 176 171 156 146 135 192 206 222 93 107 215 192 203 173 161 36 62 152 207 219 225 224 227 216 228 325 190 124 99 178 246 233 263 216 196 205 164 135 236 207 149 276
167 179 169 155 154 170 144 165 197 197 106 184 218 259 198 171 162 168 148 192 218 68 189 237 204 154 215 16 95 160 164 232 332 336 347 342 221 235 223 120 103 190 136 266
170 156 150 145 162 205 142 192 170 164 177 201 182 182 209 199 183 171 153 200 222 97 252 237 271 197 211 32 111 101 146 213 189 203 225 9 305 305 254 191 131 184 224 272
151 148 143 156 179 199 242 175 218 190 164 205 190 236 261 185 175 204 183 197 198 199 219 215 211 19 353 23 348 69 120 216 251 261 275 271 260 266 272 225 230 198 226 216
148 144 153 165 189 213 254 174 150 102 174 132 189 207 236 198 160 152 197 170 161 172 209 230 124 138 203 219 332 88 18 195 330 280 272 276 269 256 246 241 239 238 249 259
138 148 170 189 206 217 237 130 67 137 157 139 149 205 201 206 132 12 29 154 154 202 237 203 248 223 262 230 209 264 159 130 69 257 326 321 282 227 227 236 231 230 243 245
141 163 186 204 218 211 198 213 111 106 191 170 192 171 175 156 137 144 172 135 145 173 99 278 264 254 250 228 237 203 177 179 167 261 1 242 244 304 239 237 247 263 259 208
144 174 195 206 201 195 150 196 124 138 188 173 131 151 124 105 94 129 161 165 162 149 71 29 309 297 297 240 220 197 200 168 242 228 213 296 312 332 320 178 229 327 251 71
144 140 134 144 151 140 88 54 342 110 125 237 98 141 148 144 146 89 102 67 139 72 100 166 203 230 241 289 247 21 182 205 200 187 217 243 205 309 316 328 281 354 73 87
131 125 114 117 126 124 112 82 14 96 110 327 78 139 164 126 106 121 139 157 82 59 141 191 205 250 246 251 221 183 128 185 226 239 252 277 302 304 292 135 260 347 8 77
128 120 110 102 110 122 96 143 351 121 112 52 47 87 121 85 115 145 194 71 349 71 172 198 222 201 263 321 272 205 168 169 196 200 237 260 338 10 101 315 335 344 350 352
129 118 108 98 92 100 108 95 342 348 79 118 39 70 91 83 154 131 44 149 143 174 90 290 121 193 42 192 270 330 236 190 214 200 230 106 60 34 288 234 275 307 288 178
122 112 111 102 84 79 100 105 359 57 85 33 60 45 17 78 115 153 123 325 163 96 160 163 156 202 131 199 241 287 283 110 223 10 309 306 314 313 296 311 309 338 314 289
120 115 106 101 84 78 74 68 336 73 93 105 280 330 26 11 91 93 90 126 59 92 69 123 139 163 174 222 244 189 220 356 241 257 286 292 291 294 323 308 298 281 282 272
121 113 108 102 94 91 79 76 37 48 113 144 136 317 14 14 92 98 100 95 103 112 63 95 215 230 112 228 50 234 206 249 252 270 280 276 282 291 290 285 279 276 269 262
118 114 110 111 117 84 61 46 19 9 64 91 83 324 318 20 56 78 85 133 131 144 150 203 237 247 145 200 233 234 228 237 241 261 268 273 274 279 277 281 279 271 248 231
113 112 112 100 93 70 71 121 182 34 65 74 34 0 335 353 53 22 105 110 175 150 200 206 204 216 188 199 259 262 280 279 275 258 291 289 282 278 285 281 286 285 277 269
120 116 112 109 96 71 37 359 44 52 83 66 96 282 7 352 339 329 160 129 21 316 206 358 203 243 152 257 247 275 262 268 284 292 295 282 288 284 276 271 273 271 265 260
121 119 107 59 41 55 251 82 77 51 100 113 83 120 240 4 290 281 360 91 42 219 217 230 151 193 221 240 242 296 324 302 294 296 290 285 279 276 272 268 265 261 259 257
115 61 57 45 42 247 135 10 30 16 13 50 99 30 309 94 9 303 27 18 227 226 236 136 213 248 241 81 347 316 295 293 295 290 289 291 284 284 281 274 268 260 259 257
51 74 84 45 331 60 32 37 72 326 9 255 231 173 202 320 123 237 166 233 247 318 258 236 230 208 91 252 276 283 284 285 285 279 279 280 281 281 279 273 265 256 248 245
135 124 84 48 36 38 78 320 330 104 213 257 160 232 190 284 60 94 301 219 115 246 189 135 251 93 286 276 288 292 295 295 294 289 288 287 287 280 278 274 265 253 241 234
46 49 56 60 314 43 105 218 308 340 252 256 15 321 170 359 42 25 3 34 235 327 249 226 189 317 325 306 302 304 306 305 300 300 297 297 294 295 289 284 265 235 222 223
76 100 42 117 321 245 183 181 193 235 156 159 123 294 119 213 45 176 114 246 336 295 297 227 291 327 309 306 316 319 314 315 309 305 307 305 309 306 306 303 306 190 200 208
90 76 185 198 220 225 229 222 339 259 160 99 35 25 71 327 30 204 341 334 256 212 254 273 313 314 308 318 322 318 314 313 313 310 308 313 315 311 312 324 300 208 198 198
75 53 86 270 59 312 346 155 256 241 134 90 54 100 44 275 171 91 228 201 233 237 245 299 300 303 312 316 316 312 311 312 309 309 310 314 315 314 312 323 348 341 171 138
62 320 97 142 215 209 231 168 233 220 81 162 116 96 228 332 286 269 216 224 235 262 297 295 300 304 309 308 307 312 314 312 312 308 315 314 314 314 336 0 14 66 83 88